Satellite: OKEAN-4
Catalog number: 23317
Epoch time:      09253.40161630
Element set:      13
Inclination:      082.5369 deg
RA of node:       254.9598 deg
Eccentricity:    0.0024059
Arg of perigee:   083.9282 deg
Mean anomaly:     276.4648 deg
Mean motion:   14.82719197 rev/day
Decay rate:       2.42e-06 rev/day^2
Epoch rev:           80499
Checksum:              325

Satellite: NOAA-14
Catalog number: 23455
Epoch time:      09252.67296926
Element set:    0752
Inclination:      098.9051 deg
RA of node:       330.0353 deg
Eccentricity:    0.0008755
Arg of perigee:   315.2835 deg
Mean anomaly:     044.7637 deg
Mean motion:   14.13769162 rev/day
Decay rate:      -1.07e-06 rev/day^2
Epoch rev:           75786
Checksum:              327

Satellite: NOAA-15
Catalog number: 25338
Epoch time:      09252.74596442
Element set:    0075
Inclination:      098.5920 deg
RA of node:       240.1299 deg
Eccentricity:    0.0010774
Arg of perigee:   165.8976 deg
Mean anomaly:     194.2486 deg
Mean motion:   14.24782968 rev/day
Decay rate:        7.0e-08 rev/day^2
Epoch rev:           58881
Checksum:              353

Satellite: RESURS
Catalog number: 25394
Epoch time:      09253.59106061
Element set:     306
Inclination:      098.3348 deg
RA of node:       281.5718 deg
Eccentricity:    0.0001668
Arg of perigee:   359.5062 deg
Mean anomaly:     000.6117 deg
Mean motion:   14.24188996 rev/day
Decay rate:       -2.3e-07 rev/day^2
Epoch rev:           58055
Checksum:              303

Satellite: FENGYUN1
Catalog number: 25730
Epoch time:      09252.92134469
Element set:    0892
Inclination:      098.7604 deg
RA of node:       220.5600 deg
Eccentricity:    0.0022303
Arg of perigee:   339.5931 deg
Mean anomaly:     020.4345 deg
Mean motion:   14.07974223 rev/day
Decay rate:       2.15e-06 rev/day^2
Epoch rev:           53224
Checksum:              275

Satellite: OKEAN-0
Catalog number: 25860
Epoch time:      09253.79730791
Element set:     780
Inclination:      097.7956 deg
RA of node:       231.6172 deg
Eccentricity:    0.0000601
Arg of perigee:   066.5932 deg
Mean anomaly:     293.5336 deg
Mean motion:   14.73586790 rev/day
Decay rate:        1.5e-07 rev/day^2
Epoch rev:           54575
Checksum:              325

Satellite: NOAA-16
Catalog number: 26536
Epoch time:      09252.93922200
Element set:    0555
Inclination:      099.1796 deg
RA of node:       258.6696 deg
Eccentricity:    0.0011123
Arg of perigee:   047.7454 deg
Mean anomaly:     312.4672 deg
Mean motion:   14.12531265 rev/day
Decay rate:        8.8e-07 rev/day^2
Epoch rev:           46226
Checksum:              313

Satellite: NOAA-17
Catalog number: 27453
Epoch time:      09252.73503280
Element set:    0551
Inclination:      098.4757 deg
RA of node:       308.8590 deg
Eccentricity:    0.0010946
Arg of perigee:   233.6722 deg
Mean anomaly:     126.3429 deg
Mean motion:   14.24089264 rev/day
Decay rate:        1.0e-08 rev/day^2
Epoch rev:           37478
Checksum:              313

Satellite: NOAA-18
Catalog number: 28654
Epoch time:      09252.69857162
Element set:    0037
Inclination:      098.9118 deg
RA of node:       195.3020 deg
Eccentricity:    0.0015157
Arg of perigee:   122.2512 deg
Mean anomaly:     238.0134 deg
Mean motion:   14.11282853 rev/day
Decay rate:        5.5e-07 rev/day^2
Epoch rev:           22187
Checksum:              293

Satellite: NOAA-19
Catalog number: 33591
Epoch time:      09252.69672792
Element set:    0242
Inclination:      098.7515 deg
RA of node:       196.2798 deg
Eccentricity:    0.0014429
Arg of perigee:   008.3237 deg
Mean anomaly:     351.8170 deg
Mean motion:   14.10983453 rev/day
Decay rate:       1.27e-06 rev/day^2
Epoch rev:           03035
Checksum:              319

/EX
SB KEPS @ AMSAT  $ORB09253.M
Orbital Elements  09253.MISC

HR AMSAT ORBITAL ELEMENTS FOR MANNED AND MISCELLANEOUS SATELLITES
FROM WA5QGD FORT WORTH,TX September 10, 2009
Send Subscribe/unsubscribe to KEPS at 
http://www.amsat.org/mailman/listinfo/keps
BID: ORB09253.M
TO ALL RADIO AMATEURS BT

Satellite: HUBBLE
Catalog number: 20580
Epoch time:      09250.43949751
Element set:    0443
Inclination:      028.4717 deg
RA of node:       285.4688 deg
Eccentricity:    0.0003283
Arg of perigee:   079.4269 deg
Mean anomaly:     280.6769 deg
Mean motion:   15.00827500 rev/day
Decay rate:       3.05e-06 rev/day^2
Epoch rev:           86222
Checksum:              310

Satellite: ISS
Catalog number: 25544
Epoch time:      09252.95216194
Element set:    0578
Inclination:      051.6388 deg
RA of node:       231.6952 deg
Eccentricity:    0.0009147
Arg of perigee:   073.4975 deg
Mean anomaly:     037.1917 deg
Mean motion:   15.74020900 rev/day
Decay rate:      7.455e-05 rev/day^2
Epoch rev:           61930
Checksum:              314

Satellite: CO-58
Catalog number: 28895
Epoch time:      09253.19575857
Element set:     391
Inclination:      098.0456 deg
RA of node:       141.3769 deg
Eccentricity:    0.0019019
Arg of perigee:   082.0679 deg
Mean anomaly:     278.2692 deg
Mean motion:   14.59793790 rev/day
Decay rate:       1.88e-06 rev/day^2
Epoch rev:           20613
Checksum:              368

